Location: Anglesey
(53.1800°N, 4.2200°W)
Time: 18:50:19
(UTC+01:00)

OTV 5 (USA 277) - Pass Details

Date: 16 October 2017
Orbit: 404 x 417 km, 43.0° (Epoch: 07 September)

Event Time Altitude Azimuth Distance (km) Brightness Sun altitude
Rises 19:50:52 0° 243° (WSW) 2,354 ? -14.6°
Reaches altitude 10° 19:53:37 10° 218° (SW) 1,491 ? -15.0°
Maximum altitude 19:55:37 15° 182° (S) 1,227 ? -15.3°
Enters shadow 19:56:46 13° 159° (SSE) 1,318 ? -15.5°
